Coleman, TX

11:42 AM CDT on August 20, 2017 (GMT -0500)
Coleman Municipal

Weather History for KCOM - December, 2012

Change the Weather History Date:

Sunday, December 30, 2012

  Actual Average (KABI) Record (KABI)
Temperature  
Mean Temperature 40 °F -  
Max Temperature 48 °F 55 °F 82 °F (1951)
Min Temperature 32 °F 31 °F 10 °F (1983)
Degree Days  
Heating Degree Days 25    
Moisture  
Dew Point 22 °F    
Average Humidity 47    
Maximum Humidity 81    
Minimum Humidity 26    
Precipitation  
Precipitation 0.02 in - - ()
Sea Level Pressure  
Sea Level Pressure 30.23 in    
Wind  
Wind Speed 10 mph (SSE)    
Max Wind Speed 20 mph    
Max Gust Speed 25 mph    
Visibility 10 miles    
Events Rain    
Averages and records for this station are not official NWS values.
T = Trace of Precipitation, MM = Missing Value Source: NWS Daily Summary

Daily Weather History Graph

Daily Weather History Graph

Search for Another Location

Airport or City:

Trip Planner

Search our weather history database for the weather conditions in past years. The results will help you decide how hot, cold, wet, or windy it might be!

Date:

Astronomy

Dec. 30, 2012 Rise Set
Actual Time 7:37 AM CST 5:43 PM CST
Civil Twilight 7:10 AM CST 6:10 PM CST
Nautical Twilight 6:40 AM CST 6:40 PM CST
Astronomical Twilight 6:10 AM CST 7:10 PM CST
Moon 8:06 PM CST (12/30) 8:55 AM CST (12/30)
Length of Visible Light 10h 59m
Length of Day
10h 06m
Waning Gibbous, 95% of the Moon is Illuminated
Dec 30
Waning Gibbous
Jan 4
Last Quarter
Jan 11
New
Jan 18
First Quarter
Jan 26
Full

Hourly Weather History & Observations

Time (CST) Temp. Windchill Dew Point Humidity Pressure Visibility Wind Dir Wind Speed Gust Speed Precip Events Conditions
12:15 AM 34.2 °F 31.2 °F 20.1 °F 57% 30.37 in 10.0 mi SSW 3.5 mph - N/A   Clear
12:35 AM 34.7 °F 31.8 °F 20.1 °F 55% 30.37 in 10.0 mi SSW 3.5 mph - N/A   Clear
12:55 AM 33.8 °F 29.6 °F 20.1 °F 57% 30.37 in 10.0 mi SSW 4.6 mph - N/A   Clear
1:15 AM 33.3 °F 30.2 °F 20.3 °F 59% 30.36 in 10.0 mi SW 3.5 mph - N/A   Clear
1:35 AM 32.9 °F 29.8 °F 20.1 °F 59% 30.37 in 10.0 mi SW 3.5 mph - N/A   Clear
7:55 AM 33.1 °F 27.7 °F 21.4 °F 62% 30.35 in 10.0 mi South 5.8 mph - N/A   Clear
8:15 AM 33.8 °F 27.0 °F 21.7 °F 61% 30.35 in 10.0 mi South 8.1 mph - N/A   Clear
8:35 AM 34.3 °F 27.7 °F 21.9 °F 60% 30.36 in 10.0 mi South 8.1 mph - N/A   Clear
8:55 AM 36.0 °F 28.5 °F 22.1 °F 57% 30.36 in 10.0 mi SSE 10.4 mph - N/A   Clear
9:15 AM 37.8 °F 30.7 °F 22.3 °F 54% 30.36 in 10.0 mi South 10.4 mph - N/A   Clear
9:35 AM 38.8 °F 31.2 °F 22.5 °F 52% 30.34 in 10.0 mi South 12.7 mph - N/A   Clear
10:15 AM 40.8 °F 32.6 °F 21.6 °F 46% 30.36 in 10.0 mi SSE 16.1 mph - N/A   Clear
10:35 AM 41.2 °F 33.7 °F 21.6 °F 46% 30.36 in 10.0 mi South 13.8 mph - N/A   Clear
11:15 AM 42.4 °F 35.3 °F 21.0 °F 43% 30.32 in 10.0 mi SSE 13.8 mph 17.3 mph N/A   Clear
11:35 AM 43.0 °F 36.4 °F 20.3 °F 40% 30.32 in 10.0 mi SSE 12.7 mph - N/A   Clear
11:55 AM 44.1 °F 37.1 °F 18.9 °F 37% 30.30 in 10.0 mi South 15.0 mph 21.9 mph N/A   Clear
12:15 PM 45.1 °F 38.1 °F 17.6 °F 33% 30.28 in 10.0 mi SSE 16.1 mph - N/A   Clear
12:35 PM 46.0 °F 39.6 °F 16.7 °F 31% 30.27 in 10.0 mi South 15.0 mph 19.6 mph N/A   Clear
12:55 PM 47.5 °F - 15.3 °F 28% 30.25 in 10.0 mi SSE 17.3 mph 20.7 mph N/A   Clear
1:15 PM 48.4 °F - 15.1 °F 26% 30.24 in 10.0 mi South 17.3 mph 25.3 mph N/A   Clear
1:35 PM 48.2 °F - 14.2 °F 26% 30.24 in 10.0 mi South 19.6 mph - N/A   Clear
1:55 PM 47.3 °F - 14.4 °F 27% 30.21 in 10.0 mi South 18.4 mph 23.0 mph N/A   Scattered Clouds
2:15 PM 46.4 °F 40.1 °F 14.9 °F 28% 30.21 in 10.0 mi SSE 15.0 mph - N/A   Mostly Cloudy
2:35 PM 45.9 °F 39.1 °F 15.8 °F 30% 30.20 in 10.0 mi SSE 16.1 mph - N/A   Overcast
2:55 PM 45.7 °F 39.5 °F 18.0 °F 33% 30.18 in 10.0 mi SSE 13.8 mph 19.6 mph N/A   Light Drizzle
3:15 PM 45.7 °F 38.8 °F 18.9 °F 34% 30.18 in 10.0 mi SSE 16.1 mph - N/A   Mostly Cloudy
3:35 PM 45.5 °F 39.2 °F 18.5 °F 34% 30.18 in 10.0 mi SSE 13.8 mph - N/A   Overcast
3:55 PM 45.3 °F 39.3 °F 18.3 °F 34% 30.18 in 10.0 mi SSE 12.7 mph - N/A   Overcast
4:15 PM 44.8 °F 38.0 °F 18.5 °F 35% 30.17 in 10.0 mi SE 15.0 mph - N/A   Mostly Cloudy
4:35 PM 44.4 °F 37.9 °F 18.9 °F 36% 30.17 in 10.0 mi SSE 13.8 mph 17.3 mph N/A   Scattered Clouds
4:55 PM 44.1 °F 37.7 °F 19.4 °F 37% 30.17 in 10.0 mi SSE 12.7 mph - N/A   Scattered Clouds
5:15 PM 43.9 °F 37.5 °F 19.8 °F 38% 30.16 in 10.0 mi SSE 12.7 mph - N/A   Scattered Clouds
5:35 PM 43.3 °F 37.7 °F 22.3 °F 43% 30.15 in 10.0 mi SE 10.4 mph - N/A   Light Drizzle
5:55 PM 43.2 °F 35.9 °F 23.0 °F 45% 30.13 in 10.0 mi SSE 15.0 mph 20.7 mph N/A   Overcast
6:15 PM 43.2 °F 36.6 °F 23.5 °F 46% 30.16 in 10.0 mi South 12.7 mph - N/A   Overcast
6:35 PM 42.8 °F 36.2 °F 24.3 °F 48% 30.17 in 10.0 mi SSE 12.7 mph - N/A   Overcast
6:55 PM 42.4 °F 36.1 °F 24.8 °F 50% 30.15 in 10.0 mi SSE 11.5 mph - N/A   Overcast
7:15 PM 41.5 °F 34.6 °F 24.6 °F 51% 30.16 in 10.0 mi SSE 12.7 mph - N/A   Overcast
7:35 PM 41.0 °F 34.7 °F 23.9 °F 51% 30.16 in 10.0 mi SSE 10.4 mph - N/A   Overcast
7:55 PM 41.0 °F 33.9 °F 24.3 °F 51% 30.16 in 10.0 mi SSE 12.7 mph - N/A   Overcast
8:15 PM 40.6 °F 33.8 °F 23.9 °F 51% 30.16 in 10.0 mi SSE 11.5 mph - N/A   Overcast
8:35 PM 40.6 °F 35.4 °F 23.9 °F 51% 30.18 in 10.0 mi South 8.1 mph - N/A   Overcast
8:55 PM 40.8 °F 35.0 °F 24.3 °F 52% 30.17 in 10.0 mi SSE 9.2 mph - N/A   Overcast
9:15 PM 40.6 °F 34.8 °F 24.8 °F 53% 30.16 in 10.0 mi SSE 9.2 mph - N/A   Overcast
9:35 PM 40.6 °F 34.8 °F 25.2 °F 54% 30.16 in 10.0 mi SSE 9.2 mph - N/A   Overcast
9:55 PM 41.0 °F 35.8 °F 25.5 °F 54% 30.16 in 10.0 mi SSE 8.1 mph - N/A   Overcast
10:15 PM 41.0 °F 36.4 °F 25.5 °F 54% 30.16 in 10.0 mi SSE 6.9 mph - N/A   Overcast
10:35 PM 40.8 °F 36.2 °F 26.4 °F 57% 30.16 in 10.0 mi SSE 6.9 mph - N/A   Light Drizzle
10:55 PM 40.1 °F 35.3 °F 29.3 °F 65% 30.16 in 10.0 mi SSE 6.9 mph - N/A Rain Rain
11:15 PM 38.8 °F 33.8 °F 31.8 °F 76% 30.14 in 10.0 mi SSE 6.9 mph - 0.01 in Rain Light Rain
11:35 PM 38.3 °F 33.9 °F 32.2 °F 79% 30.14 in 7.0 mi SSE 5.8 mph - 0.02 in Rain Light Rain
11:55 PM 38.3 °F 33.9 °F 32.9 °F 81% 30.14 in 7.0 mi SSE 5.8 mph - 0.02 in Rain Light Rain